Regional Weather Roundup
Issued by NWS Charleston, SC

Current Version | Previous Version | Graphics & Text | Print | Product List | Glossary On
Versions: 1 2 3 4 5 6 7 8 9 10 11 12 13 14 15 16 17 18 19 20 21 22 23 24 25 26 27 28 29 30 31 32 33 34 35 36 37 38 39 40 41 42 43 44 45 46 47 48 49 50
037 ASUS42 KCHS 241112 RWRCHS REGIONAL WEATHER ROUNDUP NATIONAL WEATHER SERVICE CHARLESTON SC 700 AM EDT SAT JUN 24 2017 NOTE: "FAIR" INDICATES FEW OR NO CLOUDS BELOW 12,000 FEET WITH NO SIGNIFICANT WEATHER AND/OR OBSTRUCTIONS TO VISIBILITY. NOT ALL STATIONS ARE QUALITY CONTROLLED. USE DATA WITH CAUTION... ESPECIALLY DEWPOINT OBSERVATIONS. SCZ027-030-031-034>040-042>050-241200- ...SOUTHEAST SOUTH CAROLINA... CITY SKY/WX TMP DP RH WIND PRES REMARKS N CHARLESTON PTCLDY 80 74 81 SW12 29.98S WATERFRONT PRK N/A 81 78 91 SW7 29.96R JOHNS ISLAND CLOUDY 81 77 89 SW10 29.99S PINOPOLIS N/A 79 75 89 S7G15 29.90R MONCKS CORNER NOT AVBL SUMMERVILLE NOT AVBL BEAUFORT MCAS CLEAR 78 76 93 SW6 30.00R BEAUFORT ARPT NOT AVBL HILTON HEAD IS CLEAR 79 75 89 S14 30.01R WALTERBORO SUNNY 75 73 94 S8 29.99S ALLENDALE FAIR 75 73 94 VRB3 29.97S ...SOUTHERN MIDLANDS AND PEE DEE... CITY SKY/WX TMP DP RH WIND PRES REMARKS GEORGETOWN FAIR 77 77 100 SW9 29.98S KINGSTREE FAIR 77 72 83 S3 29.96S ORANGEBURG CLEAR 75 74 96 SW8 29.97R BARNWELL FAIR 77 77 100 SW6 29.98R AIKEN FAIR 73 72 94 SW7 30.01R MANNING NOT AVBL COLUMBIA PTCLDY 78 73 84 SW8 29.94R SUMTER CLEAR 77 73 87 SW10 29.94R FLORENCE CLEAR 78 75 90 SW9 29.95R MYRTLE BEACH CLEAR 79 75 89 SW12 29.97R N MYRTLE BEACH PTCLDY 80 76 87 SW16 29.96R $$ GAZ063-065-086>088-099>101-113>116-118-119-134>141-150-241200- ...SOUTHEAST GEORGIA... CITY SKY/WX TMP DP RH WIND PRES REMARKS SAVANNAH ARPT PTCLDY 77 71 82 SW8 30.01S HUNTER AAF CLEAR 76 73 88 SW5 29.99R FORT STEWART CLEAR 75 72 89 SW3 29.99S STATESBORO PTCLDY 76 76 100 CALM 30.00R SYLVANIA SUNNY 75 75 100 CALM 30.01R CLAXTON FAIR 73 73 98 CALM 30.00S ...CSRA...CENTRAL AND FAR SOUTHEAST GEORGIA... CITY SKY/WX TMP DP RH WIND PRES REMARKS THOMSON MOCLDY 75 72 90 W5 30.02S AUGUSTA-BUSH CLEAR 78 74 87 S6 29.96R AUGUSTA-DANIEL CLEAR 77 72 84 CALM 29.98R SWAINSBORO FAIR 73 73 100 SW5 30.01R VIDALIA CLEAR 75 73 94 SW5 30.01R EASTMAN FAIR 75 75 100 CALM 30.03R HAZLEHURST N/A 76 76 100 SW3 30.00R ALMA FOG 75 73 93 S5 30.01S VSB 1/4 WAYCROSS CLOUDY 77 77 100 SW3 30.03R JESUP FAIR 72 70 94 CALM 30.03R BAXLEY CLOUDY 73 73 100 CALM 30.01S FOG BRUNSWICK CLEAR 75 75 100 CALM 30.03R SAINT SIMONS CLEAR 79 76 90 SW7 30.02R $$ SCZ027-028-034-036>038-045-046-048>050-GAZ119-141-241200- ...LAKE AND SUPPLEMENTAL COASTAL OBSERVATIONS... STATION/POSITION TIME TEMP WIND PRES WAVE SWELL AIR SEA DIR/SP/G HT/PER HT/PER/DIR (UTC) (F) (DEG/KT/KT) (MB) (FT/S) (FT/S/D) WINYAH BAY 0945 80 230/ 12 1014.0 LAKE MURRAY 1020 79 230/ 8/ 12 1012.9 ACE BASIN NERRS 0945 79 210/ 1 1016.0 FORT PULASKI 1048 78 84 240/ 4/ 6 1016.7R SAPELO ISLAND 1000 78 210/ 5 1016.0 $$ ANZ835-935-AMZ111-154-330-350-352-354-370-450-454-472-241200- ...C-MAN AND BUOY OBSERVATIONS... STATION/POSITION TIME TEMP WIND PRES WAVE SWELL AIR SEA DIR/SP/G HT/PER HT/PER/DIR (UTC) (F) (DEG/KT/KT) (MB) (FT/S) (FT/S/D) BUOY 41004 1050 81 80 220/ 19/ 23 1015.5R 6/ 6 2/120/ 9 BUOY 41008 0950 81 82 190/ 17/ 19 1015.2 4/ 5 2/100/ 8 FOLLY BEACH CMAN 1000 81 230/ 16/ 21 1015.8R CAPERS NEARSHORE 1008 85 82 240/ 19/ 25 1014.6R FRIPP NEARSHORE 1008 82 82 230/ 17/ 23 1015.2R STATION/POSITION TIME TEMP WIND PRES WAVE SWELL AIR SEA DIR/SP/G HT/PER HT/PER/DIR (UTC) (F) (DEG/KT/KT) (MB) (FT/S) (FT/S/D) 5E ST. MARYS GA 1030 79 N/A 3/ 4 FRYING PAN BUOY 1050 81 80 230/ 21/ 27 1015.0R 7/ 6 2/150/ 9 BUOY 41025 1050 81 80 230/ 25/ 31 1012.6R 8/ 7 2/180/10 CAPE LOOKOUT NC 1000 80 220/ 16/ 20 1013.1S BUOY 41002 0950 81 80 220/ 14/ 16 1017.6 4/ 5 2/110/ 9 BUOY 41010 1050 82 83 180/ 12/ 16 1017.5R 5/ 8 3/130/ 8 ST AUGUSTINE FL 1100 77 77 220/ 6/ 8 1017.2R $$

USA.gov is the U.S. government's official web portal to all federal, state and local government web resources and services.